Location: Unspecified
(42.2936°N, 3.1641°W)
Time: 15:58:56
(UTC+02:00)

X-37B - Pass Details

Date: 10 March 2021
Orbit: 380 x 394 km, 45.0° (Epoch: 07 April)

Event Time Altitude Azimuth Distance (km) Brightness Sun altitude
Rises 21:10:38 0° 230° (SW) 2,264 4.9 -22.3°
Reaches altitude 10° 21:12:45 10° 223° (SW) 1,415 3.7 -22.6°
Enters shadow 21:13:34 16° 217° (SW) 1,109 3.1 -22.8°
